Regional Weather Roundup
Issued by NWS Goodland, KS

Home | Current Version | Previous Version | Graphics & Text | Print | Product List | Glossary On
Versions: 1 2 3 4 5 6 7 8 9 10 11 12 13 14 15 16 17 18 19 20 21 22 23 24 25 26 27 28 29 30 31 32 33 34 35 36 37 38 39 40 41 42 43 44 45 46 47 48 49 50
396
ASUS43 KGLD 261108
RWRGLD

GOODLAND FORECAST AREA HOURLY WEATHER ROUNDUP
NATIONAL WEATHER SERVICE GOODLAND KS
500 AM MDT FRI AUG 26 2016

...OFFICIAL OBSERVATIONS...

CITY           SKY/WX    TMP DP  RH WIND       PRES   REMARKS
GOODLAND KS    CLOUDY    57  54  89 SE5       30.18S
HILL CITY KS   FAIR      58  57  97 E5        30.16S
IMPERIAL NEB   CLOUDY    54  51  90 SE5       30.18F
MCCOOK NEB     CLOUDY    56  53  90 CALM      30.18R
AKRON CO       MOCLDY    56  52  86 SE12      30.18S
BURLINGTON CO  CLOUDY    55  50  83 SE7       30.19F
LIMON CO       MOCLDY    56  54  93 SE9       30.19F
$$

...UNOFFICIAL OBSERVATIONS...

CITY           SKY/WX    TMP DP  RH WIND       PRES   REMARKS
COLBY KS       CLOUDY    57  57 100 CALM      30.19S
LENORA KS        N/A     58  32  37 MISG        N/A
NORTON KS      PTCLDY    57  54  88 NE3       30.16S
SHARON SPRINGS   N/A     59  55  88 S5          N/A
TRENTON NEB      N/A     57  32  39 MISG        N/A
KIT CARSON CO    N/A     60  54  82 MISG        N/A
$$




USA.gov is the U.S. government's official web portal to all federal, state and local government web resources and services.